When you browse on this site, cookies collect data to enhance your experience and personalize the content and advertising you see.
Visit our Privacy Policy to learn more. By continuing to use the site, you agree to this use of cookies and data.
  • en France
  • Liste des pays
  • À 7 jours
  • Température de l'eau
  • Carte satellitaire
  • Carte météo
  • Widgets météo
  • user-avatar
    Se connecter

    Météo par heure à Zaranj

    Ce jour, 16 Janvier, Mercredi

    Heure Température Précipitation Vent Pression Humidité
    00:00 +18°C° 0 mm 1 m/s 719 mmHg 23%
    01:00 +18°C° 0 mm 1 m/s 719 mmHg 23%
    02:00 +16°C° 0 mm 1 m/s 719 mmHg 23%
    03:00 +16°C° 0 mm 1 m/s 719 mmHg 23%
    04:00 +14°C° 0 mm 0 m/s 719 mmHg 20%
    05:00 +15°C° 0 mm 1 m/s 719 mmHg 23%
    06:00 +15°C° 0 mm 2 m/s 720 mmHg 25%
    07:00 +15°C° 0 mm 2 m/s 720 mmHg 28%
    08:00 +17°C° 0 mm 2 m/s 720 mmHg 26%
    09:00 +18°C° 0 mm 2 m/s 721 mmHg 25%
    10:00 +20°C° 0 mm 2 m/s 722 mmHg 23%
    11:00 +21°C° 0 mm 2 m/s 721 mmHg 21%
    12:00 +23°C° 0 mm 2 m/s 721 mmHg 20%
    13:00 +23°C° 0 mm 2 m/s 721 mmHg 18%
    14:00 +24°C° 0 mm 1 m/s 720 mmHg 18%
    15:00 +24°C° 0 mm 1 m/s 720 mmHg 18%
    16:00 +24°C° 0 mm 1 m/s 720 mmHg 18%
    17:00 +23°C° 0 mm 1 m/s 720 mmHg 19%
    18:00 +22°C° 0 mm 1 m/s 720 mmHg 20%
    19:00 +20°C° 0 mm 1 m/s 720 mmHg 22%
    20:00 +20°C° 0 mm 1 m/s 720 mmHg 23%
    21:00 +19°C° 0 mm 1 m/s 720 mmHg 24%
    22:00 +19°C° 0 mm 1 m/s 720 mmHg 25%
    23:00 +18°C° 0 mm 1 m/s 720 mmHg 27%

    Demain, 17 Janvier, Jeudi

    Heure Température Précipitation Vent Pression Humidité
    00:00 +17°C° 0 mm 2 m/s 719 mmHg 28%
    01:00 +17°C° 0 mm 2 m/s 719 mmHg 29%
    02:00 +17°C° 0 mm 2 m/s 719 mmHg 31%
    03:00 +16°C° 0 mm 2 m/s 718 mmHg 32%
    04:00 +16°C° 0 mm 2 m/s 718 mmHg 33%
    05:00 +15°C° 0 mm 2 m/s 718 mmHg 35%
    06:00 +15°C° 0 mm 2 m/s 718 mmHg 37%
    07:00 +14°C° 0 mm 1 m/s 718 mmHg 39%
    08:00 +16°C° 0 mm 2 m/s 718 mmHg 35%
    09:00 +18°C° 0 mm 3 m/s 719 mmHg 32%
    10:00 +20°C° 0 mm 4 m/s 719 mmHg 29%
    11:00 +21°C° 0 mm 3 m/s 718 mmHg 26%
    12:00 +24°C° 0 mm 3 m/s 717 mmHg 23%
    13:00 +26°C° 0 mm 2 m/s 717 mmHg 21%
    14:00 +26°C° 0 mm 2 m/s 716 mmHg 20%
    15:00 +27°C° 0 mm 2 m/s 716 mmHg 20%
    16:00 +27°C° 0 mm 2 m/s 715 mmHg 19%
    17:00 +26°C° 0 mm 2 m/s 715 mmHg 21%
    18:00 +25°C° 0 mm 3 m/s 715 mmHg 22%
    19:00 +23°C° 0 mm 4 m/s 715 mmHg 23%
    20:00 +24°C° 0 mm 3 m/s 714 mmHg 24%
    21:00 +22°C° 0 mm 3 m/s 714 mmHg 25%
    22:00 +22°C° 0 mm 3 m/s 713 mmHg 26%
    23:00 +22°C° 0 mm 4 m/s 713 mmHg 26%

    Après-demain, 18 Janvier, Vendredi

    Heure Température Précipitation Vent Pression Humidité
    00:00 +22°C° 0 mm 5 m/s 713 mmHg 27%
    01:00 +22°C° 0 mm 7 m/s 713 mmHg 27%
    02:00 +22°C° 0 mm 7 m/s 713 mmHg 28%
    03:00 +22°C° 0 mm 8 m/s 713 mmHg 30%
    04:00 +22°C° 0 mm 9 m/s 713 mmHg 31%
    05:00 +21°C° 0 mm 8 m/s 713 mmHg 35%
    06:00 +20°C° 0 mm 6 m/s 714 mmHg 39%
    07:00 +20°C° 0 mm 5 m/s 715 mmHg 42%
    08:00 +21°C° 0 mm 5 m/s 716 mmHg 37%
    09:00 +22°C° 0 mm 6 m/s 716 mmHg 32%
    10:00 +23°C° 0 mm 6 m/s 717 mmHg 27%
    11:00 +23°C° 0 mm 6 m/s 717 mmHg 24%
    12:00 +25°C° 0 mm 5 m/s 717 mmHg 21%
    13:00 +25°C° 0 mm 4 m/s 716 mmHg 18%
    14:00 +23°C° 0 mm 5 m/s 716 mmHg 14%
    15:00 +23°C° 0 mm 7 m/s 716 mmHg 10%
    16:00 +22°C° 0 mm 8 m/s 715 mmHg 7%
    17:00 +21°C° 0 mm 7 m/s 716 mmHg 7%
    18:00 +20°C° 0 mm 6 m/s 716 mmHg 7%
    19:00 +19°C° 0 mm 5 m/s 716 mmHg 7%
    20:00 +19°C° 0 mm 4 m/s 717 mmHg 8%
    21:00 +18°C° 0 mm 3 m/s 717 mmHg 8%
    22:00 +17°C° 0 mm 2 m/s 717 mmHg 8%
    23:00 +17°C° 0 mm 3 m/s 717 mmHg 10%

    19 Janvier, Samedi

    Heure Température Précipitation Vent Pression Humidité
    00:00 +16°C° 0 mm 3 m/s 716 mmHg 11%
    01:00 +16°C° 0 mm 3 m/s 716 mmHg 12%
    02:00 +14°C° 0 mm 4 m/s 716 mmHg 17%
    03:00 +13°C° 0 mm 4 m/s 716 mmHg 22%
    04:00 +12°C° 0 mm 5 m/s 716 mmHg 27%
    05:00 +12°C° 0 mm 4 m/s 716 mmHg 30%
    06:00 +11°C° 0 mm 4 m/s 716 mmHg 33%
    07:00 +11°C° 0 mm 4 m/s 716 mmHg 36%
    08:00 +12°C° 0 mm 4 m/s 716 mmHg 33%
    09:00 +13°C° 0 mm 4 m/s 716 mmHg 30%
    10:00 +15°C° 0 mm 5 m/s 717 mmHg 27%
    11:00 +17°C° 0 mm 4 m/s 716 mmHg 25%
    12:00 +18°C° 0 mm 4 m/s 716 mmHg 23%
    13:00 +19°C° 0 mm 3 m/s 715 mmHg 22%
    14:00 +19°C° 0 mm 4 m/s 715 mmHg 21%
    15:00 +19°C° 0 mm 4 m/s 714 mmHg 21%
    16:00 +19°C° 0 mm 5 m/s 714 mmHg 20%
    17:00 +17°C° 0 mm 5 m/s 714 mmHg 22%
    18:00 +16°C° 0 mm 6 m/s 715 mmHg 24%
    19:00 +15°C° 0 mm 6 m/s 715 mmHg 26%
    20:00 +14°C° 0 mm 7 m/s 716 mmHg 30%
    21:00 +12°C° 0 mm 9 m/s 716 mmHg 33%
    22:00 +11°C° 0 mm 10 m/s 717 mmHg 37%
    23:00 +11°C° 0 mm 11 m/s 717 mmHg 38%

    20 Janvier, Dimanche

    Heure Température Précipitation Vent Pression Humidité
    00:00 +9°C° 0 mm 11 m/s 718 mmHg 39%
    01:00 +9°C° 0 mm 11 m/s 718 mmHg 40%
    02:00 +8°C° 0 mm 11 m/s 719 mmHg 42%
    03:00 +8°C° 0 mm 10 m/s 719 mmHg 44%
    04:00 +7°C° 0 mm 10 m/s 720 mmHg 46%
    05:00 +7°C° 0 mm 9 m/s 720 mmHg 47%
    06:00 +6°C° 0 mm 9 m/s 721 mmHg 49%
    07:00 +6°C° 0 mm 9 m/s 722 mmHg 50%
    08:00 +7°C° 0 mm 9 m/s 722 mmHg 46%
    09:00 +7°C° 0 mm 9 m/s 723 mmHg 43%
    10:00 +8°C° 0 mm 9 m/s 723 mmHg 39%
    11:00 +10°C° 0 mm 9 m/s 723 mmHg 35%
    12:00 +11°C° 0 mm 9 m/s 722 mmHg 32%
    13:00 +11°C° 0 mm 8 m/s 722 mmHg 28%
    14:00 +11°C° 0 mm 8 m/s 721 mmHg 28%
    15:00 +11°C° 0 mm 8 m/s 721 mmHg 27%
    16:00 +11°C° 0 mm 8 m/s 721 mmHg 26%
    17:00 +10°C° 0 mm 8 m/s 721 mmHg 27%
    18:00 +10°C° 0 mm 7 m/s 722 mmHg 28%
    19:00 +9°C° 0 mm 7 m/s 722 mmHg 29%
    20:00 +8°C° 0 mm 7 m/s 722 mmHg 32%
    21:00 +8°C° 0 mm 7 m/s 723 mmHg 34%
    22:00 +6°C° 0 mm 7 m/s 723 mmHg 36%
    23:00 +6°C° 0 mm 7 m/s 723 mmHg 38%

    21 Janvier, Lundi

    Heure Température Précipitation Vent Pression Humidité
    00:00 +6°C° 0 mm 7 m/s 722 mmHg 39%
    01:00 +5°C° 0 mm 7 m/s 722 mmHg 40%
    02:00 +5°C° 0 mm 7 m/s 722 mmHg 41%
    03:00 +5°C° 0 mm 7 m/s 722 mmHg 42%
    04:00 +4°C° 0 mm 7 m/s 722 mmHg 43%
    05:00 +4°C° 0 mm 7 m/s 722 mmHg 44%
    06:00 +4°C° 0 mm 7 m/s 723 mmHg 45%
    07:00 +4°C° 0 mm 7 m/s 723 mmHg 46%
    08:00 +5°C° 0 mm 8 m/s 723 mmHg 42%
    09:00 +6°C° 0 mm 8 m/s 724 mmHg 39%
    10:00 +7°C° 0 mm 9 m/s 724 mmHg 35%
    11:00 +8°C° 0 mm 9 m/s 723 mmHg 32%
    12:00 +8°C° 0 mm 9 m/s 722 mmHg 29%
    13:00 +10°C° 0 mm 8 m/s 721 mmHg 26%
    14:00 +10°C° 0 mm 8 m/s 721 mmHg 26%
    15:00 +10°C° 0 mm 8 m/s 721 mmHg 26%
    16:00 +10°C° 0 mm 7 m/s 720 mmHg 26%
    17:00 +10°C° 0 mm 7 m/s 721 mmHg 28%
    18:00 +9°C° 0 mm 6 m/s 721 mmHg 31%
    19:00 +8°C° 0 mm 5 m/s 721 mmHg 33%
    20:00 +8°C° 0 mm 5 m/s 722 mmHg 35%
    21:00 +7°C° 0 mm 5 m/s 722 mmHg 38%
    22:00 +7°C° 0 mm 4 m/s 722 mmHg 40%
    23:00 +6°C° 0 mm 4 m/s 721 mmHg 41%
    Voir plus